Theta_e
279 278 278 279 279 279 280 279 279 279 279 279 279 279 279 278 279 278 278 278 278 278 278 278 277 278 278 278 277 279 280 281 279 281 280 281 281 281 280 280 280 280 280 281 280 281 281 282 282 283 284 284 285 285 287 293 294 293 292 292 291 289 289 289 290 291 291 289 289 289 289 289 291 289 290 291 293 295 296 297 297 298 299 300 301
277 277 278 278 278 279 279 279 280 278 279 279 279 279 279 279 278 278 278 278 278 277 278 278 278 277 277 278 277 278 279 279 279 280 280 281 281 281 280 280 280 280 280 280 280 280 280 280 281 281 282 282 283 284 285 286 288 291 291 290 292 291 288 289 289 291 289 292 289 289 289 289 290 289 289 289 290 291 294 295 296 296 297 297 297
276 277 278 278 278 279 279 279 279 279 278 278 279 279 279 279 279 279 278 278 278 278 279 277 277 278 277 277 278 278 280 280 279 279 279 280 280 281 280 280 280 279 279 280 279 279 279 279 280 281 281 282 281 282 282 282 284 285 287 288 288 289 289 289 289 293 290 289 290 290 287 287 289 289 289 288 288 289 290 293 294 295 295 295 296
276 277 277 278 278 278 279 279 279 279 278 278 279 278 279 279 278 279 279 278 278 278 280 278 278 279 278 278 279 279 278 280 279 278 279 279 279 280 279 279 280 279 279 279 279 279 279 279 280 280 280 281 281 280 280 280 281 282 283 285 288 286 287 287 290 291 290 287 284 287 286 288 287 287 288 289 288 288 289 291 291 293 294 294 295
276 277 277 278 278 278 278 279 279 278 278 278 278 278 278 278 278 279 279 278 278 279 278 278 278 278 277 278 279 279 279 278 278 277 277 278 279 278 279 279 279 279 279 279 279 279 279 279 279 279 280 280 280 279 279 280 280 281 282 283 284 286 286 286 287 289 289 294 290 281 281 282 286 285 287 287 287 288 287 288 290 291 293 294 294
277 277 277 278 278 278 278 278 278 278 278 279 278 278 278 278 278 279 279 279 279 279 278 278 278 276 276 276 276 276 275 276 275 275 275 275 276 277 279 279 279 279 279 278 278 279 278 278 279 279 279 279 279 279 279 279 279 279 281 281 282 284 285 286 286 288 288 288 287 288 288 286 285 283 286 285 286 287 288 287 288 289 289 292 293
277 277 277 277 278 277 278 278 278 278 279 279 278 278 278 278 278 278 278 279 279 279 278 278 277 277 276 276 276 276 275 275 276 276 276 277 277 276 277 278 278 278 278 278 278 278 279 278 278 279 279 279 279 278 278 278 278 279 280 280 281 282 283 282 285 286 287 286 287 284 284 285 287 286 283 284 282 285 285 286 286 287 288 289 291
276 277 277 277 277 277 277 278 278 278 279 278 278 278 277 277 277 278 278 278 279 278 278 278 277 277 277 276 276 276 276 275 277 277 278 277 276 276 276 276 276 278 277 278 278 278 278 278 278 278 278 279 278 278 277 278 278 278 279 280 280 281 281 280 281 285 284 285 287 284 283 284 283 283 286 285 284 282 283 284 284 284 286 288 289
276 277 277 278 278 278 278 278 278 278 278 278 277 277 277 277 278 278 277 277 278 278 278 277 278 277 277 276 275 276 277 277 277 277 277 277 276 276 275 276 276 276 277 277 277 278 278 278 278 278 278 278 278 278 277 277 277 277 277 278 278 278 280 280 281 280 282 284 286 285 284 283 284 283 282 283 284 283 282 282 283 284 284 286 287
277 277 277 277 278 278 278 278 278 278 278 278 277 276 276 277 277 277 277 277 277 277 277 277 277 277 276 276 275 275 276 276 276 276 276 276 275 276 276 276 276 277 277 275 276 277 278 278 278 278 278 278 278 277 277 277 277 277 277 277 277 277 279 279 279 279 280 282 284 285 285 284 284 284 284 282 281 283 284 282 283 282 282 285 286
277 277 277 278 278 278 278 277 278 277 277 276 276 276 276 276 276 276 276 277 277 277 277 276 276 276 276 275 275 275 275 275 274 275 275 275 275 275 275 276 276 276 277 276 276 276 277 278 277 277 278 278 277 277 276 276 277 277 277 277 277 277 277 277 278 279 279 280 280 282 285 285 284 283 284 282 282 281 281 281 282 284 284 285 285
277 277 277 277 277 277 277 277 277 277 276 275 276 276 276 276 276 275 276 276 276 276 276 276 276 276 275 275 274 275 275 274 274 274 274 274 274 274 275 275 275 276 276 276 277 277 276 276 277 277 277 277 277 277 277 276 277 277 277 276 276 277 277 277 276 277 277 278 279 280 281 285 286 285 285 284 283 282 282 282 281 282 283 285 284
276 276 276 276 276 277 277 277 276 276 276 275 275 275 276 276 275 274 275 276 275 276 275 275 275 275 275 275 274 275 274 274 274 274 274 274 274 274 274 274 275 274 275 275 276 276 277 276 276 276 276 277 277 277 277 277 277 277 276 276 276 276 276 276 276 276 276 276 277 279 280 281 284 286 286 285 285 285 284 283 282 282 281 283 284
275 276 275 275 276 276 276 276 276 275 275 275 275 276 275 275 275 274 274 275 275 275 275 275 275 275 275 275 274 274 274 274 274 274 274 274 274 274 274 274 274 274 275 275 276 276 276 276 276 276 276 277 277 277 277 276 277 276 276 276 276 277 276 275 275 276 276 277 278 277 278 279 280 284 285 286 285 285 284 283 284 281 280 281 282
274 274 275 275 276 276 276 276 275 275 274 274 275 275 274 274 274 274 273 274 274 274 274 274 274 274 274 274 274 274 274 274 274 275 274 274 274 274 274 274 274 274 274 275 275 275 275 275 275 275 276 276 277 277 277 276 276 276 276 276 276 276 276 275 275 275 275 275 276 277 277 278 279 280 282 285 285 285 285 285 284 282 282 280 280
275 275 275 275 275 275 275 275 275 274 274 274 274 274 274 274 274 274 273 273 274 274 274 274 274 274 274 273 274 274 274 274 274 274 274 274 274 274 273 274 274 274 275 275 274 275 274 274 275 275 275 275 276 276 276 276 276 275 275 275 275 277 275 275 275 275 275 275 275 276 276 276 279 279 281 281 285 285 285 285 285 284 283 281 281
275 275 275 275 275 275 275 274 274 274 274 273 274 274 274 273 273 273 273 273 273 274 274 274 274 273 273 273 273 273 273 273 273 273 273 274 274 274 273 274 274 274 274 274 273 274 274 274 274 274 274 275 275 275 275 275 276 275 275 274 274 275 275 275 275 274 275 275 275 275 275 276 277 278 279 280 281 284 285 285 285 284 284 282 282
275 275 275 274 274 275 275 274 274 274 274 273 273 274 274 273 273 272 273 272 273 273 273 273 273 273 273 273 273 273 273 273 273 273 273 273 273 273 273 273 273 274 274 273 273 273 273 273 273 273 273 274 274 275 275 275 275 274 274 274 275 275 274 275 275 275 274 275 275 275 275 275 276 277 277 278 280 280 283 285 285 285 285 283 283
274 274 273 273 274 274 274 274 274 274 274 273 273 273 273 272 273 273 272 273 273 273 273 273 273 273 273 273 273 273 273 273 273 273 273 272 272 272 272 272 273 273 273 272 272 272 272 272 272 272 272 273 273 274 275 274 275 274 274 274 275 275 274 274 274 274 274 275 274 274 274 274 275 275 276 277 278 280 280 283 285 285 285 284 284
274 274 274 274 274 274 273 273 273 273 273 273 273 272 272 272 272 272 273 273 273 273 273 273 273 273 272 273 273 273 272 272 272 272 272 272 272 272 272 272 272 273 272 272 271 271 271 271 271 271 271 272 272 273 274 274 274 273 273 273 274 274 273 273 273 274 274 274 273 273 273 274 274 275 275 276 277 278 280 280 281 285 285 285 285
274 274 274 274 274 274 273 273 273 273 273 273 272 272 272 272 272 272 272 272 272 272 273 272 272 272 272 271 271 271 271 272 271 272 271 271 271 271 271 272 272 271 271 271 270 270 270 270 271 271 271 271 272 272 272 273 273 272 273 273 273 273 273 273 273 273 274 273 273 273 273 273 274 274 274 275 276 276 278 279 280 281 284 285 285
274 274 274 274 273 273 273 273 273 272 272 272 272 271 271 271 272 272 272 271 271 272 272 272 272 272 271 271 271 271 271 271 271 271 270 271 271 271 271 271 270 270 270 270 270 270 270 270 270 270 271 271 271 271 271 271 271 271 271 272 272 272 272 272 272 272 273 273 273 273 273 273 274 273 274 274 274 275 276 276 277 278 279 284 286
274 274 274 273 273 273 273 272 272 272 272 272 271 271 271 271 271 271 271 271 272 272 272 272 271 271 271 271 271 271 271 270 270 270 270 270 270 270 271 270 269 269 270 269 269 269 270 270 269 269 269 269 269 269 270 270 270 271 271 271 271 271 271 271 271 271 272 272 272 272 272 272 273 273 273 273 274 274 275 275 275 277 278 279 284
274 274 273 273 273 272 272 271 271 271 271 271 271 271 271 271 271 271 270 271 271 272 271 271 270 270 270 270 270 270 270 270 269 269 269 269 269 269 269 268 269 269 268 269 269 269 269 268 268 268 269 269 269 269 270 270 270 270 270 270 270 270 270 271 271 271 271 271 271 271 271 272 272 272 272 272 273 273 274 275 276 277 278 278 279
273 272 272 272 272 271 271 271 271 271 271 271 270 270 270 270 270 270 270 271 271 271 270 270 270 269 269 269 269 269 269 269 269 269 268 268 268 268 268 268 268 268 268 269 269 269 268 268 268 268 268 268 269 269 269 269 269 270 270 270 270 270 270 270 271 271 271 271 271 270 271 271 271 271 271 271 272 272 273 273 274 274 275 277 279
272 271 271 271 271 271 271 271 271 271 270 270 270 270 270 270 270 270 270 271 271 271 270 269 269 269 269 269 268 269 268 268 268 268 268 267 268 267 267 268 268 267 267 268 267 267 267 267 268 267 268 268 268 268 268 268 269 269 269 269 269 270 270 270 270 270 270 271 270 270 270 271 271 270 270 271 272 271 272 272 272 273 274 276 277
271 271 271 271 270 270 270 270 271 270 270 270 270 270 270 270 270 270 270 270 270 270 269 269 269 269 267 268 268 268 268 268 267 267 267 266 266 267 267 267 267 267 266 266 267 267 267 267 267 267 267 267 267 268 268 268 268 268 268 268 268 268 269 269 269 270 270 270 270 270 270 270 270 270 270 270 271 271 272 272 273 273 273 274 274
270 270 269 269 270 270 270 270 270 270 270 270 270 270 270 270 269 270 270 269 269 269 268 267 268 267 267 267 268 267 267 267 266 266 266 266 266 266 266 266 266 266 266 266 266 266 266 266 266 266 266 267 267 267 267 268 268 267 267 267 267 268 268 268 269 269 270 270 270 270 270 270 270 270 270 270 271 270 271 271 272 273 273 274 274
269 269 269 269 269 269 270 270 270 270 269 269 269 269 269 269 269 269 269 269 269 268 267 267 267 267 267 267 267 266 266 265 265 265 265 265 265 265 265 265 265 265 266 266 266 265 265 265 265 265 266 266 266 266 267 267 266 266 266 266 267 267 268 268 268 269 269 269 269 269 269 269 270 270 271 271 271 271 271 270 271 273 273 273 273
269 269 269 269 269 269 269 270 269 269 269 269 269 269 269 268 268 269 268 269 268 267 266 266 266 266 266 266 265 264 264 264 264 264 265 265 264 264 264 264 264 265 266 265 264 264 263 263 263 264 264 264 265 265 266 267 268 267 267 268 268 268 268 268 268 268 269 269 269 269 269 270 270 270 271 271 271 272 272 272 271 271 271 271 271
269 269 269 269 269 269 269 269 268 268 268 268 268 268 267 267 267 267 267 267 267 266 266 266 266 266 265 263 263 263 264 264 264 265 264 264 264 264 263 264 265 265 264 263 263 263 262 263 262 262 262 262 263 263 265 269 270 271 270 269 269 269 269 268 268 268 268 269 269 269 269 269 270 270 270 271 271 272 272 273 273 273 273 272 271
269 269 269 269 269 269 268 268 268 268 268 267 267 267 267 266 267 267 267 267 266 266 266 265 264 263 263 263 263 264 264 264 264 263 263 263 263 263 263 264 264 263 263 262 261 261 261 261 261 261 261 261 262 264 268 269 270 271 271 269 269 268 268 268 269 269 268 268 269 269 269 270 270 270 269 270 270 271 271 272 272 273 273 274 274
269 269 269 269 269 269 269 268 268 267 267 267 267 267 266 267 267 267 266 266 265 265 264 263 262 262 263 263 264 264 264 263 263 262 262 262 262 262 263 263 262 262 261 260 261 261 261 261 261 260 260 261 261 264 268 269 270 271 271 270 269 268 268 268 268 268 268 268 268 268 268 270 270 271 270 270 270 270 271 271 272 272 272 273 274
269 269 270 270 270 269 269 268 268 268 268 268 267 267 267 267 267 266 265 265 265 264 262 262 262 262 263 263 263 263 263 262 262 262 261 261 261 262 263 262 261 261 260 260 260 260 261 260 260 260 261 262 262 264 268 269 270 271 271 271 269 269 268 268 268 269 269 269 269 268 268 268 269 269 269 269 268 268 269 269 270 270 271 272 273
270 270 269 269 269 268 267 267 266 266 267 266 266 267 267 266 265 265 265 264 262 262 261 262 262 262 262 262 262 262 262 261 261 261 261 261 262 262 262 261 260 260 260 260 260 259 260 260 261 261 262 262 262 265 268 269 270 270 271 270 268 268 268 268 268 268 268 268 268 268 268 268 268 269 269 269 268 268 268 268 268 269 269 271 273
271 270 270 269 268 267 267 267 267 266 266 267 266 266 265 264 264 264 263 261 261 260 261 261 261 262 262 262 261 260 260 260 260 260 260 261 262 261 260 260 260 260 260 260 260 260 260 260 261 261 260 260 261 266 267 268 269 270 270 268 267 267 267 267 267 268 268 268 268 268 267 267 267 268 269 270 270 270 269 268 268 269 269 270 270
271 270 270 269 268 267 267 267 266 266 266 266 266 265 264 263 262 261 261 261 261 261 261 261 261 261 261 260 261 260 260 259 259 259 260 261 261 259 259 259 258 259 259 259 259 259 260 260 260 260 259 260 260 264 267 268 268 269 269 266 266 266 266 266 266 267 267 267 267 267 267 267 267 267 269 271 272 270 269 269 269 269 269 270 270
270 270 268 266 266 266 266 266 266 266 266 266 265 264 261 261 262 262 261 261 261 260 260 261 260 260 260 260 260 260 259 259 259 259 260 261 260 259 258 259 258 258 258 258 259 259 259 260 259 259 260 260 261 262 266 267 268 269 268 266 266 266 266 266 266 267 267 268 268 268 269 268 268 267 269 272 273 271 270 270 270 270 270 270 271
270 268 267 266 266 266 266 266 265 265 265 264 263 262 261 261 261 261 261 260 260 259 259 259 260 260 259 259 259 259 258 258 258 260 259 258 257 257 258 258 258 257 257 258 258 258 258 259 259 260 261 261 260 261 263 266 268 268 267 266 266 266 265 266 267 267 268 268 268 269 269 269 269 269 272 273 273 271 269 269 269 268 268 268 270
268 268 268 267 266 265 264 264 264 265 264 263 262 261 261 261 260 260 259 259 259 259 259 259 259 259 259 259 259 259 259 259 259 260 258 257 257 257 257 257 257 257 257 257 258 258 257 258 260 260 259 259 259 259 261 266 267 268 269 266 266 265 265 265 266 266 266 267 267 267 269 270 272 272 273 273 274 274 271 270 270 269 268 268 271
268 268 268 266 265 264 264 264 264 264 263 262 262 260 260 260 260 259 258 259 259 259 259 259 259 258 258 258 259 258 258 259 259 258 256 256 256 256 256 256 255 256 256 256 256 257 257 258 258 258 258 258 259 259 260 265 267 268 268 268 266 266 266 265 265 265 266 265 266 267 268 269 270 271 272 273 273 274 274 272 271 270 270 271 273
268 268 267 266 264 263 264 264 264 264 263 262 261 260 260 259 258 258 258 259 258 258 258 257 258 258 258 258 257 258 258 258 257 256 254 254 255 255 255 255 255 255 255 255 255 256 256 256 257 257 258 258 259 260 260 262 266 267 268 268 266 266 267 266 266 266 266 266 267 268 268 268 269 271 272 273 273 274 274 272 271 274 275 275 273
266 266 267 265 264 263 263 263 264 263 262 262 260 259 258 258 257 258 259 258 258 257 257 257 257 257 257 257 257 256 257 255 256 255 254 253 254 253 253 254 254 254 254 253 254 254 255 255 256 257 258 258 258 259 260 260 262 266 267 268 268 268 269 268 266 265 265 266 267 268 268 268 270 271 272 273 273 274 273 272 274 275 275 273 273
268 267 266 265 264 263 263 263 263 262 261 261 259 258 257 257 257 258 258 257 256 256 256 256 256 256 256 257 256 255 253 252 253 254 253 252 253 253 253 254 254 254 254 254 254 255 255 254 255 256 257 258 258 259 260 261 261 264 266 268 268 269 269 267 266 265 266 266 266 266 266 268 270 271 272 273 273 272 271 273 274 273 272 272 272
266 266 265 264 263 262 262 262 262 261 260 258 258 257 257 256 258 257 257 256 256 255 255 256 255 255 255 255 254 253 252 251 252 252 252 253 252 251 253 253 253 253 253 253 254 254 254 255 255 255 256 257 258 259 259 260 261 262 265 267 267 267 266 266 265 266 266 266 267 269 270 270 271 272 272 271 270 269 271 271 270 271 271 271 271
266 265 264 263 262 262 261 260 260 260 259 258 257 256 256 257 257 257 256 255 255 254 254 254 254 254 254 253 252 253 252 251 251 251 252 252 252 252 253 253 253 253 253 253 253 254 254 254 254 255 255 257 258 258 259 260 261 262 263 264 265 265 265 266 266 266 266 266 268 268 268 268 268 268 268 268 268 268 269 270 270 270 270 271 271
265 265 263 262 261 260 260 259 258 259 258 257 256 256 256 256 256 256 256 255 254 254 254 255 254 254 253 252 252 253 253 252 250 250 251 252 253 252 251 252 252 252 252 253 253 253 253 253 254 255 256 257 257 258 259 260 260 261 261 262 262 263 265 265 264 264 264 264 265 266 266 267 268 268 268 268 268 269 268 268 269 270 270 271 271
265 264 262 261 260 260 259 258 258 258 257 256 256 256 256 255 255 255 255 254 253 254 254 254 254 254 254 253 252 254 254 253 252 250 251 250 250 251 251 251 252 252 252 252 252 252 253 254 254 255 256 256 257 259 259 258 260 260 261 262 263 264 263 263 262 263 264 265 265 266 266 266 266 266 266 266 266 267 267 268 268 269 269 270 271
263 263 262 261 260 259 258 257 257 258 257 256 255 256 255 255 256 255 254 252 253 254 254 253 253 253 253 253 253 252 252 252 252 250 250 250 251 250 251 251 252 253 253 253 253 254 255 256 256 256 256 257 257 257 258 261 261 262 262 262 262 262 262 262 263 264 264 264 265 265 264 264 264 265 265 265 265 265 266 267 266 267 268 269 270
263 262 261 260 258 257 257 256 257 257 256 256 255 255 254 255 254 253 252 252 253 253 252 253 252 252 252 252 252 252 251 252 251 250 250 250 253 255 254 253 253 256 257 258 258 256 257 258 258 259 260 257 256 257 261 262 263 263 263 262 262 262 262 263 264 265 265 263 263 262 262 262 263 263 263 263 264 264 265 265 266 268 268 269 269
262 261 260 258 257 257 256 256 256 256 255 255 255 255 254 254 254 253 251 251 251 252 253 253 252 251 252 252 252 251 251 250 250 249 248 249 249 251 255 256 256 256 256 257 259 260 261 260 259 258 259 259 259 259 261 261 262 262 261 260 261 262 263 264 264 263 261 261 260 260 261 261 262 262 262 262 263 264 264 264 265 266 267 268 268
Wind_Speed
5 6 6 6 6 6 5 4 4 6 4 4 5 7 6 6 6 8 6 5 5 6 6 6 7 7 4 6 7 6 7 8 5 7 7 8 9 9 10 10 10 11 12 11 12 11 11 11 12 13 11 11 12 13 14 9 5 4 6 7 7 9 3 4 5 6 7 3 2 2 1 1 1 0 0 1 1 1 0 1 1 1 1 2 1
5 6 6 5 5 6 5 4 4 6 6 6 7 7 7 6 6 6 5 5 4 4 4 4 4 4 4 6 5 7 7 7 8 7 8 7 8 8 8 8 10 10 11 11 11 11 11 10 10 12 13 11 9 10 13 13 14 9 6 5 6 3 7 8 9 9 5 8 6 3 2 1 0 0 1 1 1 1 1 1 1 2 2 1 1
5 6 6 5 6 7 5 5 5 3 5 5 6 7 7 7 6 6 5 4 4 4 3 3 3 4 3 5 5 4 3 4 4 5 5 7 5 7 5 6 7 7 10 10 9 11 10 10 10 10 11 12 11 11 12 14 12 13 11 7 6 4 4 2 9 11 8 4 3 4 5 5 3 2 2 2 2 1 1 1 1 2 2 1 1
8 7 7 7 6 6 6 6 5 5 4 5 5 6 5 5 6 7 6 5 4 4 3 3 4 5 5 5 5 4 5 6 5 3 6 6 7 5 4 5 6 6 7 7 7 8 10 9 8 9 10 11 11 11 12 14 13 13 12 11 6 4 2 5 5 7 4 11 6 8 2 3 5 11 8 3 2 2 2 3 1 2 2 1 1
8 9 8 7 7 7 6 6 4 4 5 5 5 5 4 6 7 6 6 6 5 5 4 3 4 4 4 5 3 4 3 4 4 3 3 5 6 6 5 4 4 5 6 7 7 7 7 7 7 8 9 10 9 10 10 10 12 10 13 10 11 6 5 2 5 6 6 9 10 5 1 3 6 2 6 5 3 4 4 3 2 2 3 2 2
8 9 9 8 8 7 8 7 5 4 5 5 5 5 5 5 5 7 6 6 5 6 4 3 3 3 5 5 6 5 5 5 5 5 5 5 5 4 6 4 3 4 5 5 6 6 6 7 7 7 8 9 10 9 9 9 12 14 13 10 10 12 7 3 4 6 8 8 3 2 4 2 4 3 7 6 2 2 0 2 3 3 2 2 2
6 7 8 7 8 6 7 7 4 4 5 5 5 5 5 5 5 6 6 5 6 6 4 2 4 4 5 5 5 6 7 4 3 4 3 4 4 5 4 4 3 3 4 4 5 6 5 6 7 7 6 6 7 8 10 11 10 10 10 11 10 9 10 8 7 5 6 10 7 2 3 1 2 8 6 5 5 5 4 4 4 3 2 3 4
8 9 9 8 8 8 9 8 5 5 5 5 5 4 5 5 4 5 4 5 5 5 6 3 3 5 5 6 5 7 7 8 8 7 6 5 4 5 4 4 3 2 3 3 3 4 5 5 6 6 6 6 7 7 8 8 9 8 10 9 10 9 10 8 9 7 4 5 6 7 4 3 2 3 4 9 4 7 6 1 2 2 2 4 4
8 8 9 9 9 9 8 6 6 5 5 4 4 4 4 3 4 4 5 5 5 6 5 5 4 4 4 4 5 6 7 7 7 6 7 6 6 6 5 5 4 3 3 2 3 3 4 4 5 5 5 6 6 5 6 7 9 10 11 11 11 11 9 9 7 9 10 8 6 7 5 4 3 2 3 3 5 6 1 7 7 2 2 5 4
8 9 9 9 9 9 7 6 6 6 5 4 5 3 3 3 4 4 6 4 4 5 4 5 5 4 4 5 6 7 6 6 6 7 7 7 7 8 7 7 5 5 3 2 2 2 3 3 3 4 4 4 4 4 5 6 6 7 8 9 10 10 8 10 9 7 7 10 7 5 5 4 3 3 2 1 2 2 5 6 7 9 9 7 6
8 8 8 9 8 8 6 7 7 6 5 4 4 4 3 4 3 4 5 3 3 4 4 4 4 3 4 5 6 6 7 6 7 7 7 8 8 8 8 7 7 7 4 4 2 3 3 3 3 3 3 3 3 3 4 4 5 5 6 7 8 9 9 10 10 9 8 8 10 10 7 6 5 5 2 2 2 2 3 4 4 8 9 8 9
9 7 8 8 8 8 6 7 7 6 4 4 4 4 3 3 3 4 5 4 3 3 3 3 3 3 3 4 5 5 6 5 6 7 7 8 8 8 7 7 7 7 7 7 7 3 2 3 3 3 3 3 2 2 3 3 3 4 4 5 6 6 7 8 8 10 11 8 8 8 11 8 6 5 2 1 1 1 2 1 3 3 3 5 2
8 8 7 7 8 8 8 8 6 6 5 5 6 5 4 3 3 3 4 4 3 3 3 4 3 3 3 4 4 4 4 5 6 6 6 6 7 8 8 8 8 7 8 8 9 8 6 5 4 3 3 3 3 2 3 3 3 3 4 4 5 6 6 7 7 8 9 9 8 8 8 10 9 4 3 3 2 1 1 2 1 0 1 3 3
9 8 8 8 8 8 8 8 8 6 6 6 6 5 4 3 4 3 5 4 4 3 4 4 5 5 4 4 4 3 4 4 5 5 5 6 6 7 7 8 8 8 8 8 8 8 8 7 6 6 5 4 4 3 3 3 3 3 3 3 4 4 5 5 5 6 6 7 7 8 8 8 9 9 5 4 5 4 6 5 3 1 1 2 0
6 6 7 9 9 9 9 8 7 7 7 6 5 5 4 4 4 4 4 4 4 5 4 5 5 5 4 4 4 3 4 4 4 4 5 6 6 6 7 7 7 7 7 7 8 9 9 9 8 7 7 7 6 4 4 3 3 3 3 3 3 3 3 4 4 5 6 7 7 7 8 7 8 8 10 7 4 6 6 6 6 8 6 3 4
7 7 8 10 10 10 8 7 7 7 8 6 6 5 5 5 4 4 4 4 4 5 5 5 6 5 5 5 5 4 4 4 4 4 5 5 6 6 8 8 7 7 6 5 6 7 8 9 9 9 9 8 9 7 5 4 4 3 3 3 3 3 3 4 3 3 5 6 5 6 6 7 7 8 8 10 8 5 5 4 6 9 11 10 6
8 8 9 11 10 9 8 8 7 7 7 7 7 6 7 5 4 4 4 4 5 5 6 6 6 5 5 5 4 4 5 6 6 6 7 6 6 6 7 8 7 7 5 4 6 6 7 8 9 9 9 9 10 9 9 6 5 4 4 4 4 4 3 4 3 3 3 4 4 5 4 6 7 8 7 7 9 9 6 5 6 8 7 6 7
11 10 10 10 9 9 8 7 8 8 9 8 8 7 6 6 6 5 4 5 5 5 6 6 7 6 5 5 5 5 5 6 6 7 7 6 6 6 7 7 8 5 5 4 6 7 7 8 9 10 10 10 10 9 9 9 8 6 6 5 5 5 4 4 3 3 3 3 4 4 4 4 5 6 7 8 8 9 9 7 8 7 7 8 7
10 11 9 9 9 9 8 9 9 9 9 8 8 6 5 5 6 6 5 5 5 5 6 5 5 4 4 5 5 5 5 6 6 7 7 7 7 8 8 9 8 7 6 6 7 7 8 8 9 10 10 11 10 10 9 9 9 8 8 7 6 5 5 5 4 4 4 3 4 5 4 4 5 5 6 7 7 7 8 10 7 7 8 10 9
9 9 9 9 8 9 10 9 9 10 9 8 7 5 6 7 6 5 5 5 5 7 7 7 6 5 6 5 5 5 6 6 8 8 7 6 8 8 9 10 8 6 5 8 7 8 9 9 9 10 10 10 10 10 10 10 9 9 9 7 8 7 6 6 6 5 4 4 5 5 5 4 5 5 5 6 7 6 7 8 10 7 8 9 9
10 9 9 8 8 9 9 9 9 8 7 7 6 7 7 6 6 6 6 6 7 7 7 7 6 6 6 6 7 5 8 7 7 6 6 7 7 8 8 7 5 5 7 7 8 9 10 10 10 10 10 10 10 11 10 10 10 10 10 10 10 9 8 7 6 7 6 5 5 6 6 5 5 5 5 5 5 7 7 7 8 9 8 8 9
10 10 8 8 8 9 8 7 7 6 7 8 7 6 7 7 6 6 6 6 7 7 7 7 5 5 6 6 7 7 8 6 6 6 7 8 8 9 7 5 6 6 6 8 9 9 9 10 9 10 10 10 11 12 12 10 11 11 11 9 9 9 9 8 7 7 6 6 6 6 6 6 5 5 6 6 5 5 6 8 8 7 9 9 8
9 9 8 8 9 9 9 9 9 9 9 8 7 8 8 8 7 7 6 7 7 8 6 5 5 5 7 7 7 8 7 6 7 7 9 9 9 8 5 6 6 7 7 8 10 10 10 10 10 10 11 11 11 11 11 11 11 12 12 11 11 11 10 9 8 8 7 6 6 5 6 6 5 5 6 6 5 5 5 6 9 7 8 9 8
9 7 7 8 8 8 7 8 8 8 8 9 9 9 8 8 7 6 7 8 7 7 6 5 6 7 7 8 7 7 7 7 8 8 10 10 9 7 4 5 7 8 9 9 9 10 10 10 10 10 10 10 10 10 10 10 12 12 12 12 12 12 11 10 9 8 7 6 6 6 5 6 6 7 6 6 6 6 5 6 7 7 8 8 9
9 9 9 9 8 9 9 9 9 8 8 8 9 9 9 8 7 7 7 7 7 6 5 6 6 8 7 7 7 6 7 8 9 9 10 10 9 8 5 8 8 9 10 10 10 9 9 9 9 10 10 10 10 11 11 11 11 11 12 12 12 12 11 11 10 8 7 7 6 6 6 6 6 7 7 6 6 7 7 6 7 7 7 8 7
10 9 9 10 10 9 8 9 8 8 9 9 9 10 9 8 8 7 7 7 7 6 6 7 6 7 7 7 7 6 7 9 9 10 10 9 8 8 7 8 8 11 10 10 10 9 8 9 9 9 10 10 10 10 11 11 12 11 11 11 12 12 12 12 11 10 8 6 7 7 7 7 7 7 7 7 7 8 8 8 8 7 7 7 8
11 10 10 8 8 10 10 9 9 9 9 9 10 9 8 8 8 7 7 7 7 6 6 7 7 7 7 7 7 7 7 8 8 8 8 6 6 8 9 9 9 10 10 10 9 8 8 8 9 9 10 10 11 10 10 10 11 11 10 10 11 12 12 11 10 9 8 7 7 8 8 8 8 7 8 8 8 9 8 9 8 8 7 7 8
8 8 10 11 11 10 10 10 10 10 10 10 10 9 9 7 8 7 7 7 6 6 7 7 6 7 7 7 7 7 7 7 7 7 6 8 9 7 8 9 9 10 9 9 8 8 7 7 8 9 10 10 10 11 10 10 10 9 9 9 10 11 11 11 10 9 8 8 8 9 9 9 9 9 8 9 9 9 8 9 8 8 7 8 8
10 11 11 11 11 11 11 11 11 11 12 11 9 8 6 7 6 7 7 8 8 7 7 7 7 7 7 6 6 5 6 6 7 7 9 9 8 9 9 9 9 9 8 7 6 7 7 8 8 9 10 10 10 10 9 9 9 9 10 10 12 11 11 11 10 10 9 9 9 9 9 9 9 12 15 14 13 12 9 9 8 7 8 8 9
12 12 12 11 12 11 10 11 10 11 12 10 9 8 7 8 7 7 8 7 7 6 6 7 7 7 6 6 5 5 7 7 7 10 8 8 8 9 8 7 8 8 5 5 6 5 5 6 7 8 8 8 9 8 10 18 18 13 11 10 10 11 12 11 11 11 11 10 10 9 9 12 15 16 17 18 18 19 19 15 11 8 9 9 9
11 10 11 11 11 10 10 10 11 11 11 10 9 8 7 8 7 9 9 8 6 6 6 7 10 8 6 4 5 6 6 8 9 8 8 9 9 8 7 9 9 5 6 7 6 7 6 6 8 8 9 7 7 8 16 20 20 21 15 12 11 10 10 11 12 12 11 10 9 11 10 12 13 15 16 20 19 20 20 20 21 19 16 12 10
11 11 10 10 10 10 10 11 11 10 10 9 8 8 7 8 7 8 9 6 6 6 8 9 6 4 4 4 6 8 8 8 9 9 9 9 8 8 9 9 6 6 7 6 7 7 8 8 8 8 8 8 8 13 20 19 19 19 18 12 10 10 11 11 10 9 10 10 11 12 11 11 11 12 11 12 16 21 22 22 22 21 21 23 22
12 11 11 10 10 10 10 10 9 9 9 9 8 7 7 7 7 8 6 5 6 7 7 6 5 4 7 6 8 8 9 9 9 10 8 6 7 9 9 7 8 8 7 7 7 8 8 9 8 9 9 9 9 14 20 20 19 19 19 16 11 11 11 11 11 12 14 14 14 13 13 11 9 14 14 11 11 12 17 21 23 24 24 25 24
11 11 11 10 8 7 8 9 9 9 8 7 6 7 8 7 7 5 5 5 6 6 5 6 5 6 6 7 8 10 9 8 8 8 7 8 8 9 7 6 8 6 6 6 7 9 9 9 9 9 9 10 10 13 18 20 20 21 21 18 11 11 12 11 11 12 11 12 12 13 12 13 12 13 13 13 13 13 13 13 12 11 12 17 22
12 11 10 10 10 8 7 7 7 7 6 5 6 6 7 7 6 6 5 5 4 6 5 6 6 6 6 6 7 8 9 9 7 6 6 8 9 7 6 7 5 6 7 7 7 8 9 9 9 10 10 11 9 18 22 22 21 21 21 19 11 10 10 10 10 10 10 11 11 12 13 14 14 14 15 15 14 14 14 13 14 14 14 14 14
12 11 10 9 9 10 9 8 6 5 6 6 7 6 6 7 5 4 4 4 5 5 8 6 5 6 6 6 5 7 6 7 7 6 7 10 9 6 7 6 5 6 5 6 7 8 10 10 9 9 10 12 11 20 21 21 21 20 21 13 11 11 11 10 10 9 8 9 10 11 12 13 13 14 17 22 20 14 12 14 16 16 15 14 14
9 8 9 8 8 8 7 6 5 6 6 7 6 6 6 5 4 4 4 6 7 8 7 6 5 6 6 5 7 7 7 7 7 8 8 8 7 6 5 3 5 6 8 9 10 10 10 10 10 10 10 11 11 16 20 20 21 22 18 11 11 11 11 12 12 11 11 10 10 11 11 10 12 13 17 24 24 22 16 16 16 16 15 13 13
6 5 5 6 6 6 6 7 6 7 7 6 5 5 4 5 7 7 7 8 8 8 6 5 5 6 6 5 6 6 7 7 7 8 9 7 6 4 4 3 5 7 9 9 9 10 9 9 9 10 10 11 11 14 20 21 22 22 18 13 11 11 11 11 10 9 9 8 10 17 15 13 13 12 19 24 24 19 15 14 12 12 16 14 13
8 9 8 8 7 8 7 6 6 7 7 6 6 6 5 6 5 5 6 6 6 5 4 5 6 6 6 5 5 6 7 7 8 9 7 6 5 5 5 4 5 6 9 9 9 9 9 9 9 9 13 13 11 13 19 21 21 21 16 11 10 10 11 11 10 10 9 9 8 9 15 16 14 15 23 23 23 19 14 14 14 15 17 17 15
6 5 7 7 7 6 4 7 8 8 6 6 6 5 6 6 6 5 6 7 7 6 5 5 6 6 5 5 5 6 7 7 9 7 5 5 4 4 5 5 5 6 8 8 9 9 10 10 9 8 8 9 10 11 12 21 20 20 20 13 10 10 11 11 11 11 11 10 10 10 12 17 21 20 19 20 20 21 16 14 13 12 15 18 13
7 7 5 6 7 7 7 8 7 7 5 5 5 4 5 6 6 6 8 7 6 4 4 6 6 6 6 6 6 6 7 8 6 5 4 5 4 5 6 5 6 7 7 8 8 9 9 10 8 7 8 9 8 10 12 20 20 20 20 17 10 10 10 10 10 11 10 11 10 10 10 13 18 19 18 19 20 20 19 13 11 11 13 15 17
5 6 7 6 5 4 6 6 6 6 6 5 4 5 6 6 6 8 9 6 5 5 5 5 6 7 7 6 6 6 6 5 4 4 4 5 5 5 6 6 5 6 8 9 9 8 8 8 7 7 7 9 9 13 11 15 20 19 19 20 12 10 11 10 11 10 10 9 10 10 9 11 16 19 19 20 22 22 23 15 14 20 23 24 18
5 5 7 6 4 5 6 6 6 5 5 4 4 5 6 6 8 10 6 5 5 5 6 6 6 7 7 7 6 6 6 3 5 4 4 6 6 4 6 6 7 7 8 9 9 8 8 8 8 6 5 7 9 8 14 12 16 19 19 19 19 14 17 11 7 7 7 7 7 7 7 11 16 19 21 23 23 25 21 15 24 25 25 25 21
6 7 6 5 5 4 4 4 5 5 4 4 4 7 6 7 10 7 5 5 5 5 5 6 7 7 7 7 6 5 4 4 5 5 3 5 6 5 5 4 5 6 6 7 8 7 7 7 8 8 7 5 6 6 9 14 13 18 18 18 17 17 18 11 9 8 7 7 7 7 9 17 21 22 23 23 23 21 15 21 22 22 21 21 15
7 7 6 4 6 5 4 4 5 4 4 4 4 6 7 9 8 5 6 6 6 6 5 7 7 7 7 6 6 5 4 4 5 4 4 4 5 4 5 4 4 5 6 6 8 7 6 7 7 9 8 7 6 6 6 9 15 15 16 16 17 18 17 17 10 8 8 7 11 17 18 18 18 19 19 18 14 14 17 19 20 20 20 12 12
3 4 5 5 3 3 3 5 5 5 5 4 5 5 8 9 6 6 6 6 6 5 6 8 7 7 7 6 5 6 6 5 5 4 5 4 4 4 3 5 4 4 5 6 7 6 7 7 8 9 8 7 6 6 7 8 8 8 8 14 18 18 17 17 14 10 14 18 18 17 18 17 14 12 9 9 10 11 16 20 22 21 13 12 11
6 5 4 3 3 3 5 5 6 5 5 5 5 6 8 7 7 7 6 6 6 6 7 7 8 7 6 6 6 5 6 6 4 3 4 4 4 3 3 4 4 5 5 5 7 7 7 8 8 8 8 8 7 7 8 5 3 4 5 7 9 9 12 12 8 7 8 8 10 11 11 14 15 17 17 16 15 15 13 12 10 9 9 10 11
4 3 3 2 3 5 5 5 7 7 5 5 5 6 7 7 7 7 6 5 6 7 8 8 8 7 6 5 6 6 7 6 5 4 4 3 3 3 3 4 4 4 5 6 5 6 7 7 7 8 9 8 9 6 4 5 6 6 8 8 8 8 8 7 8 8 9 10 10 12 12 8 8 7 7 6 6 7 9 9 9 9 9 10 12
4 2 4 4 3 4 5 5 8 6 5 5 6 6 6 7 7 6 5 5 7 8 8 8 7 6 6 5 5 6 6 6 5 5 5 5 5 3 4 5 6 5 5 6 6 8 9 8 8 8 9 8 6 6 6 9 12 15 13 11 10 9 8 8 11 17 13 11 10 9 7 7 6 7 7 7 7 7 7 8 8 8 9 9 9
1 2 2 2 3 4 5 6 7 6 6 6 6 6 5 6 5 5 5 6 7 7 6 8 7 6 6 5 5 6 5 5 5 5 5 4 6 8 7 5 5 8 13 16 15 11 10 9 10 10 6 6 7 8 15 19 19 18 18 18 18 18 19 16 16 19 13 9 8 7 7 8 8 6 6 6 7 6 7 8 8 9 9 9 8
2 1 2 3 4 4 4 7 8 6 6 6 6 6 6 6 6 5 5 7 6 7 6 7 7 6 6 6 5 5 5 5 5 5 4 5 5 4 8 11 12 12 13 15 17 18 18 16 12 10 9 14 15 18 19 18 19 19 19 19 21 20 16 15 14 10 7 6 8 8 8 8 8 7 7 7 6 6 6 7 8 8 8 9 8
Wind_Direction
272 279 282 284 294 298 296 300 306 317 326 341 345 351 349 354 347 351 345 347 356 355 359 357 358 350 357 12 3 349 356 355 352 360 358 4 360 3 3 2 357 359 359 0 3 1 359 358 1 358 358 7 4 2 346 338 352 348 333 308 171 150 132 141 133 132 135 107 112 82 70 55 42 46 207 192 183 162 163 194 151 204 201 214 198
294 301 292 286 286 292 300 300 319 343 339 344 1 348 340 346 354 335 336 339 348 355 352 349 358 354 337 331 347 333 346 354 349 349 351 348 355 2 2 358 358 2 1 2 6 5 4 359 2 1 359 2 357 355 358 1 0 5 357 340 325 229 173 168 162 142 216 184 157 174 202 257 149 236 238 223 241 189 172 188 172 210 209 228 233
286 268 278 282 295 304 308 308 312 324 310 335 336 341 343 349 348 340 335 332 327 330 346 343 329 329 336 312 324 325 306 337 332 329 333 338 347 357 357 359 359 2 360 4 10 7 1 5 4 357 1 355 3 6 5 1 360 5 359 341 322 334 331 202 172 188 163 109 103 120 199 197 222 229 216 237 215 218 171 198 201 207 218 246 267
291 298 297 300 302 295 304 308 310 320 331 327 335 340 337 342 340 342 334 333 318 307 318 317 301 309 309 301 306 307 313 324 326 324 332 336 345 348 352 2 360 0 2 360 8 10 5 3 358 2 358 2 358 10 12 4 3 360 0 350 343 327 351 288 233 202 153 139 173 198 153 174 206 222 194 179 178 196 199 214 178 215 230 238 255
281 293 298 297 305 299 290 285 302 321 325 323 329 328 334 331 334 337 335 335 323 309 301 305 312 323 323 318 302 311 290 306 321 334 337 332 329 341 341 356 355 357 2 3 6 4 3 1 360 3 8 3 360 5 10 8 356 355 357 360 360 341 317 323 292 267 232 195 158 102 103 211 221 64 128 221 164 202 213 199 190 214 219 223 232
244 259 263 279 279 291 296 299 311 320 318 319 305 304 320 325 333 339 341 338 334 319 306 311 318 321 328 335 338 334 330 332 342 335 335 335 325 317 320 334 348 358 0 356 360 359 5 4 353 3 13 11 10 2 1 4 2 2 356 353 355 1 343 330 303 294 302 296 290 221 173 187 155 184 156 205 118 256 262 185 207 204 197 224 225
251 247 257 263 271 275 282 282 295 303 295 302 305 306 318 324 341 336 342 339 340 335 330 321 315 320 319 318 315 318 320 315 316 311 311 312 319 320 318 325 332 346 353 356 352 352 354 4 0 4 7 19 11 5 10 5 2 354 354 358 355 349 6 10 341 321 321 291 290 355 15 353 186 154 195 85 173 203 213 211 216 196 202 215 224
246 261 264 256 259 251 258 273 279 267 278 285 293 307 325 321 332 334 337 342 344 344 336 343 314 316 316 321 319 316 321 310 316 310 305 310 319 316 322 322 321 325 334 346 345 346 351 352 351 352 2 13 16 22 9 5 1 353 357 354 353 359 3 15 359 348 310 281 339 320 331 348 339 354 195 181 152 171 199 215 277 215 215 226 225
234 243 250 255 257 263 259 267 269 276 270 278 289 289 285 310 329 334 336 342 342 349 349 344 334 324 316 314 320 316 318 317 315 309 312 315 317 315 319 315 319 316 309 321 331 334 348 346 349 357 358 355 19 9 13 9 8 359 359 5 3 354 1 354 11 9 348 314 318 295 307 304 325 342 342 294 169 155 140 175 192 139 249 233 225
243 237 246 254 252 253 258 261 268 254 254 261 275 269 298 318 325 328 318 331 331 338 353 344 347 345 340 336 328 324 325 320 322 321 325 327 322 321 321 319 318 318 314 305 310 319 320 333 339 344 347 354 4 1 1 4 7 6 357 360 5 358 1 357 2 0 0 345 321 302 298 288 287 284 275 313 346 258 173 180 182 174 207 216 192
240 242 242 246 251 258 257 253 256 268 256 264 282 294 304 308 304 310 298 301 321 332 341 342 340 343 341 333 323 321 325 322 330 331 331 335 334 332 330 323 316 315 314 313 294 308 311 318 322 322 331 346 343 346 359 358 356 355 352 356 359 2 6 355 351 354 2 359 353 337 296 266 258 254 239 212 250 180 150 164 165 198 197 199 203
239 242 257 261 274 265 239 245 243 251 267 278 279 272 265 271 277 291 295 300 308 311 318 318 325 316 318 315 317 317 319 323 327 329 331 334 333 333 330 328 324 321 318 315 317 308 306 306 305 309 306 313 333 337 336 341 335 339 353 3 354 352 6 360 356 358 357 356 354 347 334 303 264 265 315 325 274 323 346 48 173 163 257 236 50
229 238 247 254 251 261 264 259 262 253 244 256 266 254 243 246 259 271 290 297 294 292 284 288 289 292 290 299 296 297 306 313 316 319 327 330 331 329 332 329 327 329 320 323 315 318 312 306 307 305 302 297 292 310 302 317 329 339 347 349 354 352 8 359 353 354 355 352 344 341 329 335 317 286 264 258 285 347 21 331 348 356 223 211 197
229 234 242 251 254 258 246 246 240 241 239 248 253 246 233 241 254 257 285 287 286 286 283 285 281 276 271 274 277 282 291 302 303 310 315 321 322 322 325 323 322 318 319 320 315 317 312 304 296 297 294 286 279 269 277 289 301 324 329 335 345 333 357 344 343 348 347 345 345 337 341 333 333 328 286 233 231 220 232 213 245 323 310 282 46
233 237 243 247 253 248 246 236 230 225 231 240 243 235 225 240 237 265 282 288 288 285 284 281 282 272 262 264 262 272 282 284 289 297 306 309 311 311 313 314 314 312 319 315 326 318 318 316 310 300 301 298 288 276 260 258 267 290 298 296 317 304 330 335 326 345 343 345 342 343 334 331 331 331 333 299 242 224 227 225 214 240 248 239 259
235 239 245 247 246 246 239 236 231 225 226 237 252 246 231 232 238 247 259 271 270 273 276 282 280 271 264 266 264 267 273 274 276 283 289 291 293 301 305 305 303 312 312 322 327 332 326 324 319 315 308 303 296 282 276 265 259 262 281 282 285 282 303 308 313 332 322 333 335 339 336 325 326 328 328 328 305 248 227 207 198 221 235 240 224
232 230 235 243 244 239 228 230 229 226 232 234 243 240 230 230 239 252 261 267 273 276 284 286 279 271 270 270 275 274 272 280 286 284 286 280 281 290 297 297 300 302 302 321 321 321 319 321 317 311 309 304 300 295 287 276 267 258 264 277 277 279 282 294 299 308 309 314 318 328 331 320 325 323 327 328 327 311 254 224 209 213 211 230 226
232 232 233 233 239 240 240 230 226 228 229 237 240 240 221 218 228 244 249 268 276 287 294 293 282 269 273 277 282 280 282 282 282 286 283 279 282 287 294 295 295 291 301 302 307 306 311 313 309 307 303 299 296 291 290 290 290 282 271 260 256 272 275 279 284 283 291 294 302 312 313 320 308 322 320 322 320 318 309 254 225 224 220 226 231
229 229 227 230 226 229 231 230 227 230 233 232 244 232 223 223 228 226 244 252 269 283 289 283 269 262 261 274 276 283 287 288 286 279 277 278 283 293 298 297 289 286 286 300 298 301 307 305 303 299 298 295 291 287 285 287 290 287 281 277 264 252 255 266 271 277 273 282 293 291 303 303 309 308 313 316 311 312 315 311 266 222 222 226 231
227 225 222 226 226 222 222 221 225 229 231 232 234 222 223 226 229 239 246 250 268 280 286 285 271 263 271 273 278 282 286 288 291 292 287 285 294 296 299 295 284 288 295 295 296 298 300 298 295 293 293 292 290 287 284 284 286 285 284 279 277 270 255 247 261 259 260 267 271 279 284 292 300 304 305 305 306 309 313 310 309 269 227 224 227
222 220 226 227 229 227 226 225 233 239 236 236 225 221 221 220 229 234 244 257 263 267 274 269 262 259 266 277 287 291 289 290 288 286 290 291 292 296 294 283 287 285 288 291 294 296 296 293 290 288 288 289 290 289 288 285 281 282 283 282 278 276 266 258 262 258 252 255 259 264 271 274 284 290 289 296 305 308 307 308 303 306 274 227 223
220 224 224 232 232 228 232 234 235 237 237 231 229 223 222 221 222 232 239 245 261 267 262 257 248 252 265 282 290 289 292 295 290 290 290 294 296 301 292 280 277 280 287 289 293 294 290 289 289 288 289 291 290 289 288 284 281 280 279 279 278 274 271 268 266 259 255 246 252 259 260 268 269 268 281 290 289 295 307 302 301 297 303 283 225
217 221 224 225 225 223 223 228 230 230 234 234 230 221 221 224 227 232 234 252 253 262 257 248 246 259 275 282 287 291 294 290 289 292 294 297 299 295 283 278 279 286 286 288 290 289 290 293 293 293 290 288 287 286 285 286 286 285 284 281 280 279 275 273 269 264 260 255 248 236 249 265 266 269 272 276 287 288 280 284 287 291 291 293 284
233 236 232 228 227 227 229 234 234 232 233 228 223 224 225 222 229 231 241 253 258 255 249 243 259 268 274 279 283 289 288 288 289 292 293 297 297 291 282 281 286 290 290 288 284 289 293 294 291 292 293 290 289 290 288 287 287 287 285 284 282 278 276 273 271 271 267 257 246 246 244 257 264 270 272 278 274 274 280 275 278 287 285 288 294
237 238 235 234 230 231 233 233 234 238 236 231 224 222 218 227 225 235 246 249 251 246 244 256 266 276 276 276 279 279 281 285 288 292 294 296 295 293 289 286 290 288 288 290 290 288 289 289 291 294 295 293 290 286 285 283 283 284 285 285 284 282 279 276 273 269 267 259 250 246 248 250 254 262 268 269 273 272 271 278 284 288 291 293 294
234 238 235 236 236 237 238 238 237 236 233 230 227 221 224 225 227 231 246 251 244 242 248 263 267 274 277 275 274 271 275 282 289 293 295 294 293 291 290 286 287 289 287 287 286 288 286 290 293 294 293 293 289 285 281 281 281 281 283 287 287 284 280 277 275 271 262 252 254 257 257 255 253 253 259 261 269 276 275 271 271 274 283 290 291
231 230 234 242 244 239 239 242 242 243 237 229 223 223 223 223 235 235 239 242 245 247 252 260 268 269 276 274 274 275 280 287 291 292 292 290 284 283 289 288 287 286 286 282 281 282 286 287 291 292 291 287 286 282 280 279 279 279 281 281 282 281 278 274 266 263 257 250 251 255 254 252 253 254 259 259 263 264 269 271 272 276 278 284 288
230 232 234 237 240 242 243 246 251 250 244 235 226 223 221 222 235 239 236 239 243 246 250 256 265 268 266 270 273 283 289 288 288 290 288 285 287 281 284 287 286 283 279 277 277 283 285 285 288 288 286 285 282 282 278 277 275 272 275 277 276 273 273 272 271 261 255 253 248 248 249 246 248 250 252 257 258 266 268 271 271 272 270 269 270
231 233 234 235 236 235 238 241 245 247 245 236 231 226 230 235 235 244 242 239 241 241 251 255 261 262 263 266 278 285 290 291 292 286 285 286 287 287 285 285 282 277 274 270 279 282 283 286 283 282 284 281 281 280 279 277 277 271 264 263 264 260 259 265 263 261 258 254 247 245 243 244 240 244 248 250 252 253 257 264 265 269 278 278 278
232 232 231 230 233 233 235 238 242 239 240 236 228 227 228 233 242 244 243 244 230 240 246 257 255 255 262 272 280 290 293 292 285 287 282 290 289 288 285 279 276 273 273 289 285 279 277 280 286 284 284 286 284 282 278 278 276 272 264 248 238 239 241 241 247 253 260 264 265 260 252 244 243 247 251 255 257 256 255 254 258 257 259 262 263
239 237 233 228 229 232 238 242 243 240 237 231 228 232 237 241 242 248 249 240 225 242 253 259 267 260 262 276 284 285 286 283 285 283 289 294 291 288 284 279 272 277 296 292 287 284 280 281 284 284 283 280 278 276 279 280 278 277 275 274 272 266 243 236 242 252 259 263 263 266 263 257 254 255 258 259 259 259 259 259 257 255 253 253 258
243 238 234 234 235 237 237 239 240 238 233 230 234 232 226 236 241 246 244 230 224 245 261 259 252 260 264 273 277 279 276 275 281 286 293 293 287 286 283 280 290 301 297 290 285 278 281 282 281 279 279 276 277 277 283 282 281 281 280 277 271 266 265 264 258 242 240 242 247 251 252 254 255 253 251 250 254 256 258 258 258 257 257 256 252
239 241 238 233 232 236 237 237 235 233 229 231 225 234 237 243 255 250 226 214 238 250 259 255 253 253 261 266 272 275 277 276 281 292 291 287 286 282 280 288 296 294 287 281 280 288 287 284 279 279 278 275 272 273 282 283 283 283 282 280 273 269 268 266 259 254 254 260 267 272 275 269 264 262 265 263 258 258 259 259 259 259 259 259 260
237 234 237 242 244 238 230 223 224 226 224 230 220 231 247 254 253 236 215 236 255 265 249 254 253 256 263 266 270 280 278 275 284 289 288 287 283 276 281 294 297 287 279 284 288 286 286 283 278 277 276 273 267 271 282 286 287 287 285 282 273 270 268 265 263 260 259 256 250 252 257 259 257 256 257 258 261 261 260 260 261 264 265 262 259
245 242 233 231 233 235 224 225 225 227 229 228 245 236 256 258 235 232 231 255 258 259 254 251 257 261 262 267 266 273 275 277 279 281 282 282 278 278 292 298 289 287 293 291 291 288 285 282 280 281 286 289 291 289 287 287 288 288 287 287 282 280 277 273 271 271 272 275 277 278 276 274 272 267 260 256 256 255 256 256 256 252 253 257 255
237 230 233 222 219 212 208 218 216 212 229 224 239 245 242 240 225 237 257 254 255 247 252 252 259 262 264 266 265 263 261 272 278 278 279 282 282 283 292 291 285 286 282 284 281 281 280 280 282 285 284 283 280 285 288 290 290 290 289 287 283 278 274 270 267 265 258 259 255 252 254 255 260 265 268 267 266 263 260 258 257 255 252 253 256
234 216 224 210 197 190 202 193 193 206 224 237 242 227 221 233 243 253 252 254 242 245 247 253 258 269 274 269 270 268 264 270 277 279 278 274 278 292 285 279 286 284 290 289 288 287 286 286 285 282 280 282 279 282 288 291 292 290 290 287 283 279 274 269 261 251 251 247 244 242 244 246 248 248 251 258 260 258 255 252 250 248 246 245 252
217 200 192 178 182 178 189 180 207 220 224 240 234 208 221 241 253 253 248 245 238 242 245 257 269 276 275 265 264 259 263 266 273 276 275 272 283 281 276 282 284 293 293 291 290 288 284 281 278 278 274 274 278 283 290 292 291 290 288 286 283 281 280 280 276 255 249 246 249 255 252 249 249 249 251 258 262 263 259 257 257 262 265 257 246
201 190 191 188 189 182 189 198 207 230 239 223 208 202 220 250 251 255 244 248 244 241 247 260 270 275 271 261 257 256 259 261 266 271 265 266 276 272 280 285 281 284 286 290 289 288 285 281 274 267 276 284 286 287 288 290 289 289 288 282 277 273 273 271 272 268 262 260 254 255 260 260 256 252 256 260 259 258 256 256 257 260 264 265 264
202 201 191 185 169 165 192 204 221 237 230 195 193 204 236 253 260 254 253 248 243 239 242 255 267 271 265 259 255 255 257 260 269 263 254 267 270 277 279 285 285 287 287 286 284 281 279 279 281 280 281 277 277 279 280 286 288 288 288 287 284 283 282 282 282 283 282 279 279 277 271 269 272 276 276 271 265 261 252 244 244 246 251 257 257
195 205 164 165 181 185 205 216 223 232 213 188 190 217 247 250 255 256 251 247 245 241 248 256 265 268 268 260 260 250 257 262 254 245 258 270 270 277 286 283 285 287 285 284 280 281 281 282 280 274 273 274 268 274 277 285 290 290 289 288 281 279 281 281 282 279 274 272 265 262 258 258 267 273 276 279 279 277 276 272 257 243 246 253 256
180 176 175 191 194 211 227 236 230 213 195 192 206 233 250 256 256 253 251 250 245 244 250 259 261 266 269 267 259 258 256 247 246 254 268 273 267 269 272 279 278 280 283 284 286 284 282 280 277 273 270 273 272 270 275 281 288 292 291 287 283 277 275 269 267 257 251 245 249 256 256 254 259 268 272 274 276 277 278 276 270 270 265 261 259
178 195 200 186 203 214 224 231 231 212 201 212 214 241 252 254 252 255 256 251 246 246 254 258 261 264 266 266 266 258 250 245 258 255 256 272 275 276 278 278 283 285 284 283 283 282 281 281 284 276 270 273 273 272 272 272 279 289 292 292 286 282 281 290 313 311 310 305 306 297 284 272 270 270 271 272 273 273 274 273 276 277 276 273 270
221 214 206 186 216 224 232 238 228 221 218 225 222 248 249 252 255 257 255 251 249 254 257 263 262 260 261 265 264 258 256 262 254 254 256 264 276 275 273 272 278 282 288 289 288 287 286 284 288 291 288 277 271 269 273 274 275 284 293 294 294 295 298 309 310 304 298 295 293 284 272 271 268 269 270 269 271 277 284 285 287 289 292 288 278
216 216 194 191 207 229 231 240 234 235 232 232 229 242 256 256 261 257 255 251 253 258 263 265 263 261 262 263 267 266 268 261 252 235 251 252 269 270 282 281 275 282 281 281 286 285 279 286 293 293 292 286 278 272 273 275 280 284 291 300 305 306 309 310 304 295 294 292 292 293 297 301 301 295 293 300 305 301 294 291 289 289 290 282 273
221 203 191 202 215 219 227 247 260 248 253 239 243 228 252 256 260 258 255 248 254 262 266 265 262 259 259 260 267 278 277 264 252 236 227 240 239 257 269 283 285 276 275 274 282 286 291 293 289 288 283 282 285 286 282 286 287 286 289 296 300 301 297 298 300 303 305 302 300 301 300 300 298 296 299 295 290 289 288 287 285 284 279 276 266
231 218 183 186 182 220 242 251 263 263 251 253 246 246 245 261 263 260 258 253 255 260 264 266 263 261 262 256 255 268 277 273 251 242 237 241 239 234 257 273 275 281 281 283 284 288 286 285 283 282 285 287 287 283 280 288 296 288 288 286 289 284 285 302 312 303 295 290 287 289 291 292 292 290 287 284 283 285 286 282 278 272 268 267 266
224 203 172 173 192 228 251 258 264 269 258 252 254 254 254 256 260 262 259 259 261 261 263 264 260 255 255 249 257 264 265 263 257 248 254 254 242 231 242 254 265 272 282 285 282 277 275 274 278 285 287 285 282 278 312 317 302 295 287 285 284 296 312 317 310 303 294 289 291 291 292 292 288 280 279 274 271 268 270 275 274 275 274 269 268
233 192 165 207 229 245 251 263 268 271 267 262 259 261 259 258 260 261 258 256 261 264 264 267 265 264 260 254 257 258 255 249 262 264 246 229 227 237 244 255 250 234 248 263 267 273 276 274 267 271 274 277 297 312 309 307 300 299 302 306 308 308 311 303 291 294 297 294 290 293 302 304 300 291 282 281 282 277 275 271 270 274 273 269 265
231 157 185 237 245 246 265 267 273 273 270 266 267 267 262 258 260 260 254 254 261 265 265 266 260 258 258 259 261 257 246 241 245 257 268 277 240 244 257 261 270 279 288 292 289 284 279 280 287 283 290 322 317 309 310 308 306 306 308 310 308 302 294 291 289 290 294 298 302 306 306 302 300 295 283 281 279 280 284 285 285 281 279 277 273
181 198 282 257 265 274 277 277 274 277 273 270 273 273 274 269 261 258 249 252 258 265 264 265 263 257 254 253 252 253 246 238 242 249 251 252 294 278 272 281 287 294 299 302 301 296 296 297 302 309 320 323 320 317 313 310 310 312 315 309 296 294 298 294 303 323 322 307 303 296 291 289 287 287 281 274 275 282 284 288 287 286 282 278 276